Tracking 19709 objects as of 20-Jun-2019
HD Live streaming from Space Station
objects crossing your sky now

THORAD AGENA D DEB

Track THORAD AGENA D DEB now!
10-day predictions


NORAD ID: 17719
Int'l Code: 1970-025PH
Perigee: 732.1 km
Apogee: 868.8 km
Inclination: 99.1 °
Period: 100.7 minutes
Semi major axis: 7171 km
RCS: 0.0123 m2 (small)
Launch date: April 8, 1970
Source: United States (US)
Launch site: AIR FORCE WESTERN TEST RANGE (AFWTR)

Note: This is SATELLITE DEBRIS
aabbcc
Your satellite tracking list
Your tracking list is empty




NASA's NSSDC Master Catalog

Two Line Element Set (TLE):
1 17719U 70025PH  19169.50552262  .00001720  00000-0  65852-3 0  9991
2 17719  99.0885 354.7956 0095286 281.9235 101.9670 14.29536343752890
Source of the keplerian elements: AFSPC